Location: Jackson Park
(37.2862°N, 79.9123°W)
Time: 20:44:12
(UTC+00:00)

Vanguard 3 - Pass Details

Date: 10 May 2026
Orbit: 507 x 3205 km, 33.4° (Epoch: 31 May)

Event Time Altitude Azimuth Distance (km) Brightness Sun altitude
Rises 00:46:25 0° 278° (W) 6,714 13.4 -6.2°
Reaches altitude 10° 00:51:29 10° 275° (W) 5,378 12.6 -7.1°
Maximum altitude 01:05:44 59° 202° (SSW) 1,994 9.1 -9.6°
Enters shadow 01:13:13 13° 126° (SE) 2,999 9.4 -10.8°
Drops below altitude 10° 01:13:48 10° 125° (SE) 3,166 - -10.9°
Sets 01:16:02 0° 120° (ESE) 3,862 - -11.3°
